COSMOS 2251 DEB, 36050

Orbit data source: Space-Track

COSMOS 2251 DEB, 36050 is space debris in LEO originally from a launch on Wed, 16 Jun 1993 UTC launched from the Plesetsk Missile And Space Complex (PKMTR). The debris from Iridium 33, an American commercial communications satellite, has been tracked extensively since its accidental collision with the defunct Russian satellite Cosmos 2251 in 2009. This event, occurring at high speed in low Earth orbit (LEO), generated thousands of pieces of space debris, significantly increasing the risk of further collisions. The Iridium 33 debris cloud has impacted space traffic management and orbital debris mitigation strategies, making it a subject of ongoing study in space situational awareness.

Loading next visibility...
Identifier
36050, 1993-036AXM
Orbit
LEO
Country
Flag of CISCIS
Related business
Manufacturer
Unknown
Mission
Spacecraft
Bus & Motor
Unknown
Mass
Unknown
Launch date (UTC)
1993-06-16 (33 years ago)
Launch vehicle
Unknown
Launch site
Plesetsk Missile And Space Complex (PKMTR)
Object type
Payload
Rocket body
Debris
Shape & HBR
Unknown shape, 0.1 m
Radar Cross Section
Small (<0.1 m²)

Expand to show TLE details & history
Last TLE update: 5 days ago

TLE from 5 days ago
0 COSMOS 2251 DEB
1 36050U 93036AXM 25349.89986643  .00005866  00000-0  42445-3 0  9998
2 36050  74.0305 187.5880 0088761 266.4769  92.6264 15.01080492670824
Epoch: 2025-12-15T21:35Z
TLE epoch observation values (Epoch: 2025-12-15T21:35:48.459Z)
Latitude
0.00003°
Longitude
138.84429°
Altitude
569.622 km
Speed
7.575 km/s
True Right ascension
12h 30m 21s
True Declination
0° 00' 00"
Sunlit
Object was in daylight at epoch
Visualization orbit readout
Latitude
Unknown
Longitude
Unknown
Altitude
Unknown
Speed
Unknown
Apparent Right ascension
Unknown
Apparent Declination
Unknown
Sunlit
N/A
Visualization observer readout
Local Sidereal Time
09:22:02
Azimuth
Unknown
Elevation
Unknown
Doppler factor
Unknown
Orbital elements
Apogee altitude
622.709 km
Perigee altitude
499.522 km
Semi-major axis
6,939.253 km
Eccentricity
0.00888
Inclination
74.0305°
RAAN
187.588°
Arg. of periapsis
266.4769°
True anomaly
93.64189°
Mean anomaly
92.6264°
Eccentric anomaly
93.1342°
Mean motion
3.75469 °/min
Orbital period
95.88 mins
BSTAR
0.00042445

Documentation

Showing up to 5 results
|